Погода в Масатенанго

Гватемала     14°31′45″N   91°30′17″W
темп.,
°C
ветер,
м/с
пор.,
м/с
влажн.,
%
обл.,
%
осадки,
мм/ч
давл.,
гПа
погр.,
м
17 января, вс
вс1700:00+19ссв228318 1.5 101532
03:00+20с22695 0.0 101329
06:00+20ссв22667 0.0 101426
09:00+26юв115558 0.0 1014276
12:00+31юз224544 0.0 10141289
15:00+31юз224590 0.0 10111782
18:00+24юз137694 0.5 1013133
21:00+21ссв12894 0.5 101524
18 января, пн
пн1800:00+21ссв22842 0.5 101530
03:00+20с22730 0.0 101330
06:00+20св22630 0.0 101527
09:00+26юв125013 0.0 1016323
12:00+31ююв22437 0.0 10141126
15:00+31юз33453 0.0 10111542
18:00+24з13805 1.0 101373
21:00+21ссв12850 0.0 101529
19 января, вт
вт1900:00+21с22751 0.0 101529
03:00+20св12683 0.0 101428
06:00+21ссв226334 0.0 101428
09:00+26ююв115493 0.0 1016225
12:00+32ююз114396 0.0 10141049
15:00+31юз3346100 0.1 10121523
18:00+24зюз1374100 0.3 1013124
21:00+22ссв1181100 0.0 101627
20 января, ср
ср2000:00+22с127272 0.0 101528
03:00+21ссв116618 0.0 101528
06:00+21ссв115843 0.0 101532
09:00+27ю11483 0.0 1017252
12:00+33ю11352 0.0 10151135
15:00+32ююз43380 0.0 10121447
18:00+25зюз13720 0.1 1013140
21:00+22с12710 0.0 101539
21 января, чт
чт2100:00+22ссв11640 0.0 101530
03:00+21ссв12620 0.0 101430
06:00+21ссв22570 0.0 101429
09:00+27ю11470 0.0 1016306
12:00+34ююз12370 0.0 10141363
15:00+32юз43431 0.0 10111616
18:00+25зюз13725 0.1 101293
21:00+22ссв11762 0.0 101528